�������l�o���
Date,Time,MP-1(��Sv/h),MP-2(��Sv/h),MP-3(��Sv/h),MP-4(��Sv/h),MP-5(��Sv/h),MP-6(��Sv/h),MP-7(��Sv/h),MP-8(��Sv/h),����,����(m/s),���J
2016/12/19,00:00,1.088,1.827,1.192,2.073,1.420,0.569,1.037,0.960,���쐼,6.9,��
2016/12/19,00:10,1.089,1.827,1.194,2.073,1.420,0.567,1.038,0.960,���쐼,5.9,��
2016/12/19,00:20,1.091,1.826,1.191,2.072,1.422,0.568,1.038,0.961,���쐼,5.3,��
2016/12/19,00:30,1.089,1.832,1.191,2.075,1.422,0.570,1.039,0.962,���쐼,4.6,��
2016/12/19,00:40,1.089,1.826,1.194,2.070,1.422,0.568,1.038,0.960,���쐼,5.4,��
2016/12/19,00:50,1.088,1.828,1.190,2.072,1.422,0.569,1.038,0.960,�쐼,5.0,��
2016/12/19,01:00,1.087,1.827,1.192,2.076,1.421,0.570,1.038,0.960,�쐼,5.3,��
2016/12/19,01:10,1.087,1.826,1.192,2.072,1.420,0.570,1.037,0.960,���쐼,5.0,��
2016/12/19,01:20,1.088,1.825,1.192,2.071,1.420,0.569,1.037,0.959,���쐼,5.1,��
2016/12/19,01:30,1.089,1.826,1.191,2.072,1.420,0.569,1.037,0.962,��,5.6,��
2016/12/19,01:40,1.088,1.827,1.190,2.073,1.421,0.570,1.036,0.962,��,4.7,��
2016/12/19,01:50,1.089,1.828,1.190,2.073,1.421,0.568,1.036,0.962,���쐼,5.4,��
2016/12/19,02:00,1.088,1.828,1.189,2.071,1.421,0.567,1.036,0.961,���쐼,3.4,��
2016/12/19,02:10,1.090,1.826,1.189,2.073,1.421,0.567,1.037,0.959,���쐼,3.6,��
2016/12/19,02:20,1.089,1.824,1.187,2.073,1.419,0.569,1.036,0.959,���쐼,4.1,��
2016/12/19,02:30,1.086,1.825,1.190,2.071,1.419,0.567,1.038,0.960,��,4.6,��
2016/12/19,02:40,1.087,1.825,1.189,2.070,1.420,0.569,1.035,0.962,���쐼,4.1,��
2016/12/19,02:50,1.090,1.827,1.190,2.070,1.416,0.567,1.037,0.960,���쐼,5.6,��
2016/12/19,03:00,1.088,1.827,1.190,2.074,1.422,0.570,1.037,0.960,��,6.2,��
2016/12/19,03:10,1.088,1.827,1.190,2.071,1.422,0.570,1.036,0.960,���쐼,6.1,��
2016/12/19,03:20,1.089,1.825,1.188,2.071,1.420,0.569,1.037,0.960,��,6.1,��
2016/12/19,03:30,1.089,1.825,1.191,2.073,1.421,0.567,1.037,0.961,���쐼,7.9,��
2016/12/19,03:40,1.088,1.824,1.193,2.074,1.419,0.569,1.038,0.961,���쐼,8.2,��
2016/12/19,03:50,1.090,1.827,1.192,2.069,1.422,0.568,1.036,0.959,��,7.1,��
2016/12/19,04:00,1.088,1.826,1.189,2.071,1.419,0.568,1.037,0.962,��,6.0,��
2016/12/19,04:10,1.085,1.827,1.191,2.075,1.419,0.568,1.036,0.961,��,5.7,��
2016/12/19,04:20,1.087,1.828,1.191,2.076,1.419,0.568,1.037,0.961,��,5.4,��
2016/12/19,04:30,1.087,1.826,1.191,2.075,1.418,0.569,1.038,0.960,��,5.4,��
2016/12/19,04:40,1.088,1.828,1.189,2.071,1.419,0.568,1.038,0.962,��,5.7,��
2016/12/19,04:50,1.088,1.825,1.193,2.073,1.422,0.568,1.037,0.961,��,6.8,��
2016/12/19,05:00,1.088,1.826,1.190,2.072,1.421,0.568,1.036,0.960,��,6.5,��
2016/12/19,05:10,1.088,1.827,1.189,2.074,1.420,0.568,1.038,0.959,��,6.7,��
2016/12/19,05:20,1.090,1.825,1.189,2.073,1.421,0.568,1.037,0.961,��,7.0,��
2016/12/19,05:30,1.090,1.824,1.191,2.078,1.419,0.567,1.035,0.960,��,6.8,��
2016/12/19,05:40,1.086,1.826,1.192,2.075,1.422,0.569,1.038,0.960,��,6.7,��
2016/12/19,05:50,1.089,1.826,1.190,2.074,1.417,0.568,1.037,0.961,��,6.7,��
2016/12/19,06:00,1.089,1.826,1.190,2.074,1.421,0.567,1.039,0.960,��,6.2,��
2016/12/19,06:10,1.087,1.827,1.191,2.072,1.420,0.568,1.038,0.961,��,5.5,��
2016/12/19,06:20,1.090,1.827,1.191,2.073,1.419,0.567,1.037,0.961,��,3.9,��
2016/12/19,06:30,1.088,1.824,1.190,2.073,1.420,0.569,1.038,0.961,���쐼,3.3,��
2016/12/19,06:40,1.087,1.824,1.190,2.074,1.422,0.570,1.037,0.960,��,3.6,��
2016/12/19,06:50,1.089,1.824,1.189,2.074,1.421,0.567,1.036,0.960,��,4.3,��
2016/12/19,07:00,1.087,1.822,1.193,2.074,1.419,0.567,1.038,0.961,��,5.8,��
2016/12/19,07:10,1.086,1.825,1.189,2.072,1.419,0.567,1.036,0.962,��,5.7,��
2016/12/19,07:20,1.088,1.828,1.191,2.073,1.417,0.568,1.038,0.961,��,5.5,��
2016/12/19,07:30,1.086,1.824,1.190,2.076,1.419,0.567,1.037,0.959,���k��,5.2,��
2016/12/19,07:40,1.085,1.825,1.190,2.073,1.420,0.567,1.038,0.962,���k��,5.1,��
2016/12/19,07:50,1.086,1.826,1.190,2.071,1.418,0.567,1.037,0.962,��,4.2,��
2016/12/19,08:00,1.085,1.822,1.193,2.075,1.418,0.565,1.037,0.961,��,2.9,��
2016/12/19,08:10,1.089,1.823,1.190,2.072,1.422,0.566,1.038,0.961,��,2.0,��
2016/12/19,08:20,1.089,1.825,1.189,2.075,1.422,0.567,1.036,0.958,�k�k��,1.2,��
2016/12/19,08:30,1.089,1.826,1.189,2.071,1.421,0.567,1.036,0.962,�k,2.8,��
2016/12/19,08:40,1.088,1.828,1.189,2.072,1.419,0.569,1.035,0.961,�k,3.1,��
2016/12/19,08:50,1.085,1.826,1.191,2.072,1.419,0.568,1.034,0.963,�k�k��,4.5,��
2016/12/19,09:00,1.090,1.825,1.190,2.072,1.422,0.567,1.034,0.961,�k��,4.2,��
2016/12/19,09:10,1.087,1.825,1.190,2.075,1.421,0.567,1.037,0.960,�k��,3.9,��
2016/12/19,09:20,1.087,1.824,1.189,2.075,1.421,0.567,1.037,0.961,���쐼,0.6,��
2016/12/19,09:30,1.086,1.823,1.190,2.075,1.421,0.566,1.035,0.962,�쓌,1.5,��
2016/12/19,09:40,1.087,1.827,1.192,2.075,1.422,0.567,1.034,0.961,��,1.9,��
2016/12/19,09:50,1.088,1.828,1.190,2.070,1.422,0.567,1.036,0.961,�k��,2.8,��
2016/12/19,10:00,1.087,1.827,1.191,2.076,1.421,0.568,1.035,0.961,���k��,0.9,��
2016/12/19,10:10,1.090,1.831,1.192,2.072,1.424,0.568,1.037,0.963,-,CALM,��
2016/12/19,10:20,1.089,1.829,1.194,2.077,1.421,0.569,1.034,0.963,��,1.5,��
2016/12/19,10:30,1.089,1.820,1.194,2.077,1.424,0.569,1.035,0.962,��쐼,2.3,��
2016/12/19,10:40,1.088,1.826,1.193,2.079,1.424,0.568,1.036,0.964,�쓌,1.2,��
2016/12/19,10:50,1.092,1.828,1.196,2.077,1.422,0.568,1.036,0.963,���k��,1.5,��
2016/12/19,11:00,1.092,1.827,1.195,2.077,1.425,0.568,1.037,0.961,���k��,2.2,��
2016/12/19,11:10,1.091,1.827,1.195,2.075,1.425,0.570,1.038,0.962,��,5.1,��
2016/12/19,11:20,1.093,1.829,1.193,2.078,1.424,0.569,1.036,0.963,��,4.7,��
2016/12/19,11:30,1.089,1.831,1.195,2.077,1.426,0.567,1.035,0.962,���k��,5.5,��
2016/12/19,11:40,1.093,1.832,1.192,2.076,1.425,0.568,1.037,0.963,��,3.7,��
2016/12/19,11:50,1.091,1.830,1.194,2.080,1.425,0.569,1.037,0.962,���k��,5.4,��
2016/12/19,12:00,1.092,1.829,1.194,2.081,1.423,0.568,1.034,0.963,���k��,6.6,��
2016/12/19,12:10,1.094,1.833,1.193,2.077,1.423,0.569,1.037,0.962,��,5.7,��
2016/12/19,12:20,1.093,1.829,1.195,2.079,1.423,0.569,1.035,0.962,���k��,6.1,��
2016/12/19,12:30,1.090,1.831,1.196,2.083,1.423,0.569,1.036,0.963,���k��,5.7,��
2016/12/19,12:40,1.093,1.830,1.193,2.081,1.426,0.568,1.036,0.964,���k��,5.5,��
2016/12/19,12:50,1.091,1.829,1.193,2.080,1.421,0.570,1.036,0.964,��,5.1,��
2016/12/19,13:00,1.093,1.831,1.194,2.079,1.426,0.568,1.035,0.963,��,4.6,��
2016/12/19,13:10,1.095,1.829,1.195,2.079,1.424,0.569,1.037,0.964,��,6.8,��
2016/12/19,13:20,1.092,1.831,1.195,2.080,1.424,0.570,1.037,0.964,��,7.2,��
2016/12/19,13:30,1.092,1.832,1.196,2.080,1.423,0.571,1.036,0.965,���k��,7.0,��
2016/12/19,13:40,1.094,1.832,1.196,2.080,1.421,0.570,1.037,0.964,���k��,5.5,��
2016/12/19,13:50,1.095,1.827,1.197,2.082,1.425,0.570,1.036,0.964,��,5.7,��
2016/12/19,14:00,1.092,1.832,1.192,2.082,1.426,0.571,1.038,0.964,���k��,6.9,��
2016/12/19,14:10,1.093,1.832,1.194,2.082,1.424,0.569,1.037,0.965,��,5.1,��
2016/12/19,14:20,1.094,1.832,1.198,2.083,1.425,0.571,1.038,0.964,��,4.0,��
2016/12/19,14:30,1.093,1.830,1.198,2.082,1.426,0.571,1.036,0.965,��,4.1,��
2016/12/19,14:40,1.093,1.830,1.199,2.084,1.425,0.571,1.039,0.965,���k��,6.1,��
2016/12/19,14:50,1.093,1.831,1.201,2.083,1.426,0.572,1.036,0.964,��,4.7,��
2016/12/19,15:00,1.094,1.833,1.197,2.082,1.428,0.570,1.038,0.963,��,2.5,��
2016/12/19,15:10,1.095,1.828,1.199,2.083,1.428,0.571,1.037,0.964,���k��,2.0,��
2016/12/19,15:20,1.096,1.832,1.199,2.083,1.424,0.571,1.036,0.963,��,3.1,��
2016/12/19,15:30,1.095,1.831,1.199,2.082,1.422,0.570,1.036,0.963,���k��,4.3,��
2016/12/19,15:40,1.095,1.835,1.197,2.080,1.422,0.569,1.038,0.965,��,4.9,��
2016/12/19,15:50,1.091,1.832,1.200,2.084,1.427,0.569,1.038,0.965,��,6.4,��
2016/12/19,16:00,1.092,1.833,1.200,2.081,1.424,0.572,1.037,0.962,��,7.3,��
2016/12/19,16:10,1.091,1.835,1.198,2.083,1.423,0.570,1.035,0.963,��,6.2,��
2016/12/19,16:20,1.091,1.835,1.199,2.081,1.424,0.571,1.037,0.964,��,6.0,��
2016/12/19,16:30,1.093,1.832,1.198,2.085,1.423,0.570,1.036,0.964,��,6.0,��
2016/12/19,16:40,1.093,1.834,1.199,2.082,1.424,0.572,1.035,0.965,��,6.1,��
2016/12/19,16:50,1.092,1.832,1.198,2.081,1.429,0.571,1.037,0.963,��,6.1,��
2016/12/19,17:00,1.092,1.831,1.199,2.084,1.426,0.569,1.035,0.964,��,5.5,��
2016/12/19,17:10,1.091,1.830,1.198,2.081,1.426,0.569,1.037,0.965,���k��,4.8,��
2016/12/19,17:20,1.091,1.833,1.199,2.085,1.425,0.571,1.036,0.963,��,3.5,��
2016/12/19,17:30,1.093,1.834,1.196,2.082,1.428,0.570,1.037,0.962,���k��,1.5,��
2016/12/19,17:40,1.091,1.832,1.196,2.082,1.428,0.572,1.038,0.963,���쓌,0.6,��
2016/12/19,17:50,1.093,1.830,1.197,2.077,1.426,0.571,1.038,0.961,�k,0.9,��
2016/12/19,18:00,1.093,1.827,1.197,2.078,1.427,0.569,1.039,0.961,�k�k��,0.9,��
2016/12/19,18:10,1.093,1.829,1.195,2.080,1.426,0.569,1.038,0.963,�k,1.7,��
2016/12/19,18:20,1.092,1.831,1.196,2.081,1.426,0.571,1.040,0.961,�k�k��,2.5,��
2016/12/19,18:30,1.092,1.831,1.198,2.080,1.425,0.569,1.039,0.963,���k��,3.2,��
2016/12/19,18:40,1.091,1.832,1.193,2.083,1.428,0.571,1.038,0.962,��,2.3,��
2016/12/19,18:50,1.092,1.832,1.197,2.083,1.424,0.569,1.038,0.961,��,3.7,��
2016/12/19,19:00,1.092,1.832,1.195,2.082,1.425,0.569,1.037,0.960,���쐼,3.5,��
2016/12/19,19:10,1.092,1.833,1.194,2.079,1.427,0.570,1.038,0.962,��,2.0,��
2016/12/19,19:20,1.092,1.828,1.195,2.077,1.428,0.569,1.037,0.961,��,1.7,��
2016/12/19,19:30,1.092,1.828,1.197,2.081,1.426,0.569,1.038,0.961,���쐼,1.9,��
2016/12/19,19:40,1.092,1.828,1.196,2.079,1.426,0.570,1.037,0.960,���쐼,3.1,��
2016/12/19,19:50,1.089,1.829,1.195,2.081,1.425,0.569,1.038,0.960,���쐼,2.8,��
2016/12/19,20:00,1.090,1.829,1.192,2.078,1.424,0.570,1.037,0.961,�쐼,2.3,��
2016/12/19,20:10,1.091,1.828,1.195,2.078,1.428,0.568,1.036,0.962,�쐼,2.3,��
2016/12/19,20:20,1.093,1.826,1.194,2.080,1.428,0.569,1.039,0.961,���쐼,2.0,��
2016/12/19,20:30,1.093,1.827,1.193,2.076,1.427,0.569,1.037,0.962,���쐼,2.5,��
2016/12/19,20:40,1.096,1.827,1.195,2.082,1.423,0.569,1.038,0.960,�쐼,3.0,��
2016/12/19,20:50,1.092,1.830,1.194,2.076,1.422,0.568,1.037,0.963,��쐼,4.4,��
2016/12/19,21:00,1.092,1.829,1.194,2.080,1.428,0.568,1.036,0.962,�쐼,4.3,��
2016/12/19,21:10,1.093,1.829,1.195,2.079,1.426,0.567,1.037,0.961,�쐼,4.3,��
2016/12/19,21:20,1.091,1.831,1.193,2.079,1.426,0.569,1.036,0.961,���쐼,4.7,��
2016/12/19,21:30,1.092,1.828,1.193,2.077,1.424,0.567,1.036,0.960,���쐼,4.7,��
2016/12/19,21:40,1.093,1.828,1.193,2.079,1.424,0.566,1.036,0.959,���쐼,4.6,��
2016/12/19,21:50,1.093,1.828,1.192,2.081,1.425,0.568,1.036,0.960,�쐼,4.2,��
2016/12/19,22:00,1.090,1.825,1.193,2.078,1.424,0.568,1.034,0.959,�쐼,4.0,��
2016/12/19,22:10,1.091,1.827,1.195,2.079,1.422,0.568,1.036,0.961,�쐼,3.5,��
2016/12/19,22:20,1.091,1.827,1.191,2.079,1.424,0.569,1.037,0.962,�쐼,4.4,��
2016/12/19,22:30,1.092,1.831,1.194,2.078,1.424,0.568,1.036,0.960,���쐼,3.9,��
2016/12/19,22:40,1.090,1.828,1.192,2.076,1.424,0.567,1.034,0.960,���쐼,3.1,��
2016/12/19,22:50,1.091,1.830,1.193,2.078,1.424,0.566,1.036,0.959,�쐼,4.2,��
2016/12/19,23:00,1.093,1.828,1.191,2.076,1.423,0.567,1.035,0.961,�쐼,4.0,��
2016/12/19,23:10,1.091,1.827,1.191,2.077,1.423,0.568,1.037,0.962,�쐼,3.9,��
2016/12/19,23:20,1.090,1.827,1.194,2.078,1.426,0.566,1.039,0.960,�쐼,3.4,��
2016/12/19,23:30,1.091,1.829,1.192,2.077,1.424,0.567,1.034,0.960,�쐼,3.6,��
2016/12/19,23:40,1.090,1.832,1.193,2.079,1.424,0.567,1.037,0.962,�쐼,3.7,��
2016/12/19,23:50,1.091,1.827,1.192,2.079,1.426,0.567,1.035,0.962,�쐼,3.8,��
